Theta_e
288 290 292 294 294 294 293 291 290 288 287 286 286 285 284 282 281 280 280 280 279 279 279 279 279 279 279 278 277 277 277 277
287 289 290 291 290 289 290 288 287 286 285 284 283 284 283 282 281 280 280 279 279 279 279 279 279 278 278 277 277 277 277 276
286 287 287 288 288 290 289 287 287 286 285 284 283 282 281 281 280 280 280 279 279 279 279 279 279 278 277 277 277 276 276 276
284 285 286 287 288 288 287 286 285 284 284 283 282 281 281 280 280 280 279 279 279 279 279 279 278 278 277 277 277 277 277 276
285 285 286 287 287 287 287 286 284 284 283 282 281 282 281 280 280 280 279 279 279 279 278 278 278 278 278 277 277 276 277 277
286 286 286 286 286 287 287 285 284 283 282 282 282 282 281 280 280 280 279 279 279 278 278 278 278 278 278 277 276 276 275 276
288 287 286 286 286 286 286 284 284 283 283 282 281 281 281 280 280 280 279 279 279 278 278 277 278 282 283 278 276 276 275 274
289 288 288 287 287 286 286 284 283 282 282 281 281 281 281 280 280 279 279 279 278 278 277 277 277 283 284 283 276 276 275 275
291 290 289 288 287 286 285 283 283 282 281 281 281 281 280 280 279 279 279 278 278 277 277 277 277 283 284 285 276 275 275 275
294 292 289 287 286 285 282 282 282 281 281 281 282 281 280 280 279 279 278 278 277 278 277 277 277 282 284 283 277 276 275 275
289 287 287 285 285 283 281 282 281 282 282 282 282 282 280 280 279 279 279 279 278 278 278 277 277 281 284 283 277 274 275 275
285 285 284 284 283 281 281 281 283 282 282 281 282 282 281 281 280 279 279 278 277 277 277 276 275 275 283 284 277 277 274 274
283 281 282 282 282 281 281 281 282 282 281 282 282 282 282 282 280 279 279 278 277 275 274 273 273 275 280 283 284 280 274 273
282 281 281 280 282 281 282 283 283 283 283 283 283 283 283 282 281 278 278 277 276 274 274 274 272 272 279 280 282 283 280 275
283 282 281 282 283 284 283 283 284 283 281 281 281 279 279 280 277 277 275 275 275 273 274 271 269 270 270 272 272 277 278 278
281 279 277 278 278 278 279 281 281 279 276 277 277 276 274 273 274 275 271 276 273 272 270 267 266 268 272 270 265 264 270 270
276 276 274 275 274 274 275 278 277 274 274 274 273 272 272 271 268 276 276 279 279 277 271 265 273 275 276 278 278 278 278 270
272 272 272 271 268 267 269 272 274 274 272 271 270 270 269 268 270 268 270 278 279 279 279 277 274 277 278 278 279 279 278 273
270 268 267 266 263 263 264 267 267 268 268 268 266 266 265 265 266 266 266 266 263 274 276 277 276 275 275 275 269 262 263 260
267 266 266 265 262 262 264 267 265 266 264 263 263 262 263 263 262 262 262 260 259 261 265 265 271 271 270 267 256 251 250 249
Wind_Speed
8 9 9 11 12 11 13 14 13 11 11 11 12 11 11 11 11 11 9 9 10 9 9 8 7 7 7 6 6 7 4 4
9 8 9 8 10 12 12 11 12 11 11 11 10 11 11 12 11 11 11 10 11 11 10 10 9 7 7 6 7 7 6 5
9 9 9 11 10 13 11 11 11 11 11 12 11 11 12 11 11 11 12 11 11 10 10 9 9 8 9 9 7 8 7 6
8 11 12 12 12 12 12 12 10 11 12 11 12 13 13 12 12 12 11 11 10 11 12 11 10 9 7 7 7 7 6 7
9 12 12 13 14 14 13 12 12 12 13 13 14 14 13 13 13 13 12 11 11 10 10 10 10 9 8 7 7 6 6 6
13 13 13 13 13 13 13 14 14 14 14 15 13 13 12 12 13 11 11 10 10 9 7 8 9 7 9 8 7 7 6 5
13 11 15 17 16 15 16 15 15 15 15 12 12 12 12 11 11 11 10 8 8 8 8 9 6 15 17 10 7 7 6 6
16 18 16 18 16 18 16 13 15 14 12 12 13 13 12 11 11 11 10 9 9 8 7 8 7 16 17 17 6 6 6 6
12 13 16 14 15 13 14 15 16 14 13 12 13 12 11 11 11 10 9 9 9 8 8 7 7 17 18 17 6 5 6 6
12 10 8 13 14 14 13 14 14 14 13 13 13 13 12 12 11 8 8 6 7 6 8 8 8 18 18 14 6 7 8 7
5 5 8 9 12 14 14 15 16 15 14 15 15 14 14 12 11 7 7 8 7 7 9 10 9 17 19 15 5 7 6 7
5 6 6 8 10 9 10 12 11 11 12 12 12 12 12 11 8 9 9 7 8 9 8 9 9 10 19 20 6 8 6 6
8 7 7 8 9 8 8 6 9 11 11 10 10 8 8 11 9 9 10 9 9 9 7 6 6 12 18 21 21 13 7 7
8 8 6 5 7 9 7 11 10 9 10 10 10 10 11 13 12 8 9 8 8 8 7 6 5 5 16 17 20 21 13 6
7 8 6 6 6 6 7 7 9 9 8 8 10 9 8 6 7 7 8 7 6 7 7 3 3 4 5 5 5 10 11 10
5 5 6 6 6 5 6 8 7 7 7 7 6 7 6 4 5 5 2 6 5 4 4 4 4 5 9 7 3 3 7 4
6 7 5 7 7 6 4 5 7 6 5 5 5 4 5 6 3 4 5 8 6 7 6 2 5 5 7 10 11 13 14 3
6 6 6 8 9 8 7 4 4 5 4 3 4 4 5 3 5 6 3 6 6 6 7 9 6 7 7 4 3 7 4 3
8 8 7 7 8 6 5 5 6 5 6 4 3 4 4 4 4 4 5 5 2 7 8 10 9 7 5 6 9 4 6 3
10 8 7 7 8 7 6 6 5 5 4 4 4 3 4 4 4 3 4 3 4 2 7 6 7 8 9 11 4 3 1 1
Wind_Direction
189 184 181 182 177 177 181 178 175 172 169 166 164 162 158 156 158 159 151 150 152 146 146 142 138 132 127 124 126 121 129 148
186 181 175 172 172 176 179 175 174 172 164 160 163 161 159 166 164 164 157 157 160 160 154 153 148 142 137 138 139 141 152 157
179 172 176 177 177 186 184 181 179 170 166 166 163 161 165 169 169 165 164 165 164 160 159 157 152 153 155 154 160 160 167 170
172 187 189 188 188 189 186 184 168 164 168 167 170 170 174 171 168 169 166 169 167 165 166 163 162 164 164 160 162 174 174 169
198 200 197 194 192 191 190 181 172 172 172 174 177 178 176 169 170 169 171 172 175 177 167 164 163 167 162 163 170 176 181 172
210 207 200 198 196 193 191 182 172 176 181 186 176 173 166 167 170 168 170 176 176 168 166 159 166 170 168 173 176 182 179 181
215 201 203 201 201 193 190 183 175 183 187 174 167 165 169 166 165 163 166 159 160 176 176 173 180 186 189 176 181 188 183 191
209 208 206 203 193 198 187 171 180 181 174 168 166 168 166 159 160 169 169 159 172 175 181 193 187 194 198 198 187 187 190 198
215 211 210 195 194 182 175 173 175 176 169 165 162 162 155 159 170 163 161 171 175 179 193 195 207 204 206 205 173 192 202 203
221 217 179 181 177 169 166 169 172 176 167 162 161 159 162 167 164 157 153 173 176 177 187 200 211 209 214 207 168 202 215 210
188 153 161 171 161 161 167 169 176 170 164 165 166 165 168 165 159 156 172 188 167 189 200 211 211 210 215 213 173 209 217 219
127 130 126 129 138 150 156 176 169 157 149 152 159 159 157 150 158 164 176 169 184 202 206 207 206 210 217 220 194 215 214 223
91 93 103 116 121 134 155 125 128 136 141 147 147 138 147 164 166 176 181 186 194 203 211 212 203 211 228 228 232 215 210 227
106 100 85 85 126 135 144 138 141 148 157 159 156 169 178 184 184 177 183 191 200 202 215 219 196 208 231 236 240 243 240 212
110 114 104 80 76 95 123 129 146 152 152 156 168 162 163 169 169 175 181 190 191 196 215 191 149 190 207 232 248 260 255 268
95 96 90 89 81 88 118 137 133 125 130 141 143 155 146 124 162 174 179 183 183 197 154 157 209 220 215 208 202 207 241 251
63 89 73 75 66 55 62 113 124 117 130 149 147 143 146 144 96 139 154 182 165 154 168 206 197 191 213 228 234 227 223 196
74 79 77 73 57 22 16 45 96 123 124 114 117 138 147 143 158 141 38 135 172 185 173 177 168 203 215 235 258 11 7 5
74 64 67 72 56 360 8 70 82 88 93 113 117 124 125 135 139 134 145 140 75 63 95 84 95 84 56 29 55 28 37 66
68 56 55 53 32 360 10 68 82 93 94 106 104 99 111 112 109 112 119 124 128 62 78 25 82 85 64 65 89 115 69 19